London, United Kingdom

8:50 PM GMT on December 11, 2018 (GMT +0000)
Heathrow

Weather History for EGLL - October, 2018

Change the Weather History Date:

Friday, October 12, 2018

  Actual Average Record
Temperature  
Mean Temperature 64 °F -  
Max Temperature 71 °F 55 °F 71 °F (2001)
Min Temperature 56 °F 43 °F 39 °F (1999)
Degree Days  
Heating Degree Days 2    
Growing Degree Days 14 (Base 50)    
Moisture  
Dew Point 54 °F    
Average Humidity 68    
Maximum Humidity 94    
Minimum Humidity 43    
Precipitation  
Precipitation 0.00 in - - ()
Sea Level Pressure  
Sea Level Pressure 29.81 in    
Wind  
Wind Speed 14 mph ()    
Max Wind Speed 28 mph    
Max Gust Speed 38 mph    
Visibility 8.2 miles    
Events Rain    
Averages and records for this station are not official NWS values.
T = Trace of Precipitation, MM = Missing Value Source: Averaged Metar Reports

Daily Weather History Graph

Daily Weather History Graph

Search for Another Location

Airport or City:

Astronomy

Oct. 12, 2018 Rise Set
Actual Time 7:20 AM BST 6:15 PM BST
Civil Twilight 6:46 AM BST 6:48 PM BST
Nautical Twilight 6:08 AM BST 7:27 PM BST
Astronomical Twilight 5:29 AM BST 8:06 PM BST
Moon 10:58 AM BST (10/12) 8:21 PM BST (10/12)
Length of Visible Light 12h 01m
Length of Day
10h 54m
Waxing Crescent, 13% of the Moon is Illuminated
Oct 12
Waxing Crescent
Oct 16
First Quarter
Oct 24
Full
Oct 31
Last Quarter
Nov 7
New

Hourly Weather History & Observations

Time (BST) Temp. Dew Point Humidity Pressure Visibility Wind Dir Wind Speed Gust Speed Precip Events Conditions
12:00 AM 57 °F 55 °F 91% 29.76 in 11 mi South 8.1 mph - -   Partly Cloudy
12:20 AM 57.2 °F 55.4 °F 94% 29.77 in 6.2 mi South 8.1 mph - N/A   Partly Cloudy
12:50 AM 57.2 °F 55.4 °F 94% 29.77 in 6.2 mi South 8.1 mph - N/A   Unknown
1:00 AM 56 °F 54 °F 91% 29.76 in 10 mi SSE 9.2 mph - -   Scattered Clouds
1:20 AM 57.2 °F 53.6 °F 88% 29.77 in 6.2 mi South 9.2 mph - N/A   Unknown
1:50 AM 57.2 °F 53.6 °F 88% 29.77 in 6.2 mi South 10.4 mph - N/A   Unknown
2:00 AM 57 °F 54 °F 84% 29.78 in 14 mi South 10.4 mph - -  
2:20 AM 57.2 °F 53.6 °F 88% 29.77 in 6.2 mi South 10.4 mph - N/A   Unknown
2:50 AM 57.2 °F 53.6 °F 88% 29.77 in 6.2 mi South 9.2 mph - N/A   Unknown
3:00 AM 57 °F 53 °F 84% 29.78 in 12 mi South 9.2 mph - -   Mostly Cloudy
3:20 AM 57.2 °F 53.6 °F 88% 29.77 in 6.2 mi South 9.2 mph - N/A   Partly Cloudy
3:50 AM 57.2 °F 53.6 °F 88% 29.77 in 6.2 mi South 10.4 mph - N/A   Unknown
4:00 AM 57 °F 53 °F 83% 29.78 in 11 mi South 10.4 mph - -   Mostly Cloudy
4:20 AM 57.2 °F 53.6 °F 88% 29.77 in 6.2 mi South 11.5 mph - N/A   Partly Cloudy
4:50 AM 59.0 °F 53.6 °F 82% 29.77 in 6.2 mi South 13.8 mph - N/A   Unknown
5:00 AM 58 °F 54 °F 83% 29.79 in 11 mi South 13.8 mph - -   Scattered Clouds
5:20 AM 59.0 °F 53.6 °F 82% 29.77 in 6.2 mi South 13.8 mph - N/A   Partly Cloudy
5:50 AM 59.0 °F 53.6 °F 82% 29.77 in 6.2 mi South 16.1 mph - N/A Rain Light Rain
6:00 AM 59 °F 54 °F 79% 29.78 in 11 mi South 15.0 mph - - Rain Rain
6:20 AM 59.0 °F 53.6 °F 82% 29.77 in 6.2 mi South 15.0 mph 26.5 mph N/A   Unknown
6:50 AM 59.0 °F 53.6 °F 82% 29.77 in 6.2 mi South 15.0 mph - N/A   Unknown
7:00 AM 59 °F 54 °F 78% 29.78 in 11 mi South 15.0 mph - -  
7:20 AM 59.0 °F 53.6 °F 82% 29.77 in 6.2 mi South 16.1 mph - N/A   Unknown
7:50 AM 60.8 °F 53.6 °F 77% 29.80 in 6.2 mi South 16.1 mph - N/A   Unknown
8:00 AM 61 °F 53 °F 69% 29.80 in 12 mi South 13.8 mph - -   Partly Cloudy
8:50 AM 62.6 °F 53.6 °F 72% 29.80 in 6.2 mi South 13.8 mph - N/A   Unknown
9:00 AM 62 °F 54 °F 67% 29.81 in 14 mi South 13.8 mph - -   Mostly Cloudy
9:20 AM 62.6 °F 53.6 °F 72% 29.80 in 6.2 mi South 16.1 mph - N/A   Unknown
9:50 AM 62.6 °F 53.6 °F 72% 29.80 in 6.2 mi South 17.3 mph 29.9 mph N/A   Scattered Clouds
10:00 AM 64 °F 54 °F 63% 29.81 in 14 mi South 17.3 mph - -   Partly Cloudy
10:20 AM 64.4 °F 53.6 °F 68% 29.83 in 6.2 mi SSW 20.7 mph - N/A   Mostly Cloudy
10:50 AM 64.4 °F 53.6 °F 68% 29.83 in 6.2 mi South 18.4 mph - N/A   Mostly Cloudy
11:00 AM 65 °F 54 °F 60% 29.83 in 11 mi South 18.4 mph - -   Mostly Cloudy
11:20 AM 66.2 °F 53.6 °F 64% 29.83 in 6.2 mi South 19.6 mph - N/A   Mostly Cloudy
11:50 AM 68.0 °F 51.8 °F 56% 29.83 in 6.2 mi SSW 18.4 mph - N/A   Mostly Cloudy
12:00 PM 68 °F 52 °F 47% 29.83 in 19 mi South 19.6 mph - -   Mostly Cloudy
12:20 PM 69.8 °F 53.6 °F 56% 29.83 in 6.2 mi South 21.9 mph - N/A   Mostly Cloudy
12:50 PM 68.0 °F 53.6 °F 60% 29.83 in 6.2 mi South 24.2 mph 35.7 mph N/A   Partly Cloudy
1:00 PM 68 °F 53 °F 47% 29.83 in 19 mi South 23.0 mph - -   Scattered Clouds
1:20 PM 68.0 °F 51.8 °F 56% 29.83 in 6.2 mi South 24.2 mph - N/A   Unknown
1:50 PM 68.0 °F 51.8 °F 56% 29.83 in 6.2 mi South 23.0 mph - N/A   Unknown
2:00 PM 68 °F 51 °F 43% 29.83 in 28 mi South 23.0 mph - -   Overcast
2:20 PM 68.0 °F 51.8 °F 56% 29.83 in 6.2 mi South 24.2 mph - N/A   Unknown
3:00 PM 69 °F 52 °F 45% 29.83 in 11 mi South 21.9 mph - -   Scattered Clouds
3:20 PM 68.0 °F 53.6 °F 60% 29.83 in 6.2 mi South 19.6 mph 34.5 mph N/A   Partly Cloudy
3:50 PM 68.0 °F 55.4 °F 64% 29.83 in 6.2 mi South 19.6 mph - N/A   Mostly Cloudy
4:00 PM 69 °F 55 °F 51% 29.82 in 19 mi South 19.6 mph - -   Mostly Cloudy
4:20 PM 68.0 °F 55.4 °F 64% 29.80 in 6.2 mi SSW 24.2 mph - N/A   Mostly Cloudy
4:50 PM 68.0 °F 57.2 °F 68% 29.80 in 6.2 mi South 21.9 mph - N/A   Overcast
5:00 PM 68 °F 56 °F 57% 29.82 in 13 mi South 21.9 mph - -   Overcast
5:20 PM 68.0 °F 57.2 °F 68% 29.80 in 6.2 mi South 21.9 mph - N/A   Overcast
5:50 PM 68.0 °F 57.2 °F 68% 29.83 in 6.2 mi South 19.6 mph 32.2 mph N/A   Mostly Cloudy
6:00 PM 68 °F 56 °F 57% 29.83 in 22 mi South 18.4 mph - -   Partly Cloudy
6:20 PM 68.0 °F 57.2 °F 68% 29.83 in 6.2 mi SSW 23.0 mph 35.7 mph N/A   Mostly Cloudy
6:50 PM 68.0 °F 55.4 °F 64% 29.83 in 6.2 mi SSW 24.2 mph 38.0 mph N/A   Mostly Cloudy
7:00 PM 69 °F 55 °F 52% 29.84 in 19 mi SSW 27.6 mph - -   Scattered Clouds
7:20 PM 69.8 °F 55.4 °F 60% 29.86 in 6.2 mi SSW 23.0 mph 38.0 mph N/A   Mostly Cloudy
7:50 PM 69.8 °F 53.6 °F 56% 29.86 in 6.2 mi SSW 25.3 mph 38.0 mph N/A   Mostly Cloudy
8:00 PM 71 °F 54 °F 45% 29.85 in 25 mi SSW 24.2 mph - -   Partly Cloudy
8:20 PM 69.8 °F 55.4 °F 60% 29.86 in 6.2 mi SSW 23.0 mph 35.7 mph N/A   Mostly Cloudy
8:50 PM 69.8 °F 53.6 °F 56% 29.86 in 6.2 mi SSW 24.2 mph 36.8 mph N/A   Overcast
9:00 PM 70 °F 54 °F 47% 29.86 in 28 mi SSW 21.9 mph - -   Partly Cloudy
9:20 PM 69.8 °F 55.4 °F 60% 29.86 in 6.2 mi SSW 24.2 mph 38.0 mph N/A   Overcast
9:50 PM 69.8 °F 55.4 °F 60% 29.86 in 6.2 mi SSW 19.6 mph - N/A   Overcast
10:00 PM 70 °F 54 °F 47% 29.87 in 28 mi SSW 20.7 mph - -   Mostly Cloudy
10:20 PM 69.8 °F 55.4 °F 60% 29.86 in 6.2 mi SSW 21.9 mph - N/A   Overcast
10:50 PM 69.8 °F 55.4 °F 60% 29.86 in 6.2 mi South 19.6 mph - N/A   Overcast
11:00 PM 69 °F 55 °F 51% 29.87 in 28 mi South 19.6 mph - -   Partly Cloudy
11:20 PM 68.0 °F 55.4 °F 64% 29.89 in 6.2 mi SSW 21.9 mph - N/A   Mostly Cloudy
11:50 PM 68.0 °F 57.2 °F 68% 29.89 in 6.2 mi SSW 16.1 mph - N/A   Mostly Cloudy